Location: Cowley
(49.5667°N, 114.0667°W)
Time: 10:11:25
(UTC+00:00)

Envisat - Pass Details

Date: 04 December 2021
Orbit: 764 x 766 km, 98.2° (Epoch: 24 January)

Event Time Altitude Azimuth Distance (km) Brightness Sun altitude
Rises 13:50:46 0° 6° (N) 3,247 6.1 -13.1°
Reaches altitude 10° 13:53:18 10° 356° (N) 2,316 5.3 -12.7°
Maximum altitude 13:57:42 30° 297° (WNW) 1,350 3.7 -12.0°
Drops below altitude 10° 14:02:04 10° 237° (WSW) 2,301 5.1 -11.3°
Sets 14:04:35 0° 227° (SW) 3,223 6.0 -11.0°
